Simultaneous Nadir Overpasses (SNOs) Predictions

Prediction of SNOs between NOAA-20 and AQUA Satellite Orbit:

Table of predicted SNOs for the next 14.0 days since TLE Epoch: 9/13/2019
Index Date (NOAA-20) Time (NOAA-20) Lat,Lon (NOAA-20) SZA (NOAA-20 ) Date (AQUA) Time (AQUA) Lat,Lon (AQUA) SZA (AQUA ) Distance(km) Time Diff (sec)
1 09/15/2019 14:29:28 -75.94, 21.34 85.88 09/15/2019 14:29:44 -75.94, 21.38 85.90 1.28 16
2 09/15/2019 15:19:53 76.80,-168.23 93.10 09/15/2019 15:18:52 76.80,-168.14 93.12 2.63 61
3 09/18/2019 05:55:53 75.25, -32.39 95.89 09/18/2019 05:57:01 75.24, -32.40 95.83 0.19 68
4 09/18/2019 06:46:12 -76.50, 139.07 85.59 09/18/2019 06:46:03 -76.49, 139.01 85.57 1.56 9
5 09/20/2019 22:12:44 75.49, 84.11 96.57 09/20/2019 22:13:26 75.50, 84.19 96.51 2.36 42
6 09/20/2019 23:03:06 -76.59,-104.80 84.74 09/20/2019 23:02:31 -76.60,-104.75 84.72 1.17 35
7 09/23/2019 14:29:25 76.14,-157.97 96.76 09/23/2019 14:29:42 76.14,-158.02 96.76 1.42 17
8 09/23/2019 15:19:50 -77.09, 12.93 84.38 09/23/2019 15:18:50 -77.08, 12.84 84.31 2.46 60
9 09/26/2019 05:55:57 -75.23, 147.55 81.23 09/26/2019 05:57:05 -75.24, 147.56 81.29 0.53 68
10 09/26/2019 06:46:16 76.38, -41.38 97.45 09/26/2019 06:46:07 76.38, -41.37 97.46 0.32 9




NCC Satellite Simultaneous Nadir Overpasses (SNOs) Prediction Service
